Terug naar catalogus

STARLINK-11224

ActiefCommunicatieVLEO
NORAD 60304·PAYLOAD·🇺🇸 United States

Gelanceerd Jul 28, 2024 vanaf Vandenberg Space Force Base

Loading…

Volgende Passages (komende 24 uur)

TLE

VersSource: CelesTrak SupGP

Epoch: Sep 14, 2026, 21:25 UTC

1 60304C 24133D   26257.89284722 -.00033674  00000+0 -27737-3 0  2570
2 60304  53.1572 293.5644 0001188  77.4846 151.0574 15.69727376    12

Volg STARLINK-11224 in realtime met AllMySat

Download on the App Store